Weather in Borzya

Russia / Zabaykalsky Krai     50°23′15″N   116°31′24″E
temp.,
°C
wind,
m/s
gust,
m/s
humid.,
%
clouds,
%
prec.,
mm/h
press.,
hPa
HPBL,
m
6 may, thu
thu600:00+5nne11645 0.0 100110
03:00+4nne227460 0.0 100212
06:00+3n2278100 0.0 100420
09:00+8n365662 0.0 1004690
12:00+12nnw673017 0.0 10032501
15:00+14nnw772269 0.0 10022938
18:00+14nw662792 0.0 10012656
21:00+10wnw6103847 0.0 1003427
7 may, fri
fri700:00+7n3671100 0.9 1004254
03:00+5wnw345950 0.9 100375
06:00+4wnw3759100 0.0 1001228
09:00+6wnw4441100 0.0 1000722
12:00+8nnw4333100 0.0 9982030
15:00+8n6537100 0.0 9971916
18:00+8nne7856100 0.1 9981379
21:00+6nne61371100 0.1 1001714
8 may, sat
sat800:00+6nne6135723 0.0 1003442
03:00+3n47640 0.0 1005165
06:00+2nnw34744 0.0 100761
09:00+7n574451 0.0 10071008
12:00+10nnw81032100 0.0 10062654
15:00+11nnw8930100 0.0 10052859
18:00+11n6102510 0.0 10042689
21:00+8n22385 0.0 100523
9 may, sun
sun900:00+5e225043 0.0 100718
03:00+4ne225547 0.0 100715
06:00+4n1154100 0.0 100814
09:00+8n334426 0.0 1008756
12:00+11nnw5629100 0.0 10062626
15:00+12nnw7724100 0.0 10053003
18:00+12nnw692246 0.0 10052914
21:00+9nnw2232100 0.0 100732
10 may, mon
mon1000:00+7nne3340100 0.0 100949
03:00+5nne225370 0.0 101016
06:00+4nne2262100 0.0 101029
09:00+8nne344622 0.0 10101126
12:00+11n453159 0.0 10092276
15:00+13nne5430100 0.0 10072319
18:00+12ne563492 0.0 10082036
21:00+8ne69465 0.0 1010404